Regional Weather Roundup
Issued by NWS

Home | Current Version | Previous Version | Text Only | Print | Product List | Glossary Off
Versions: 1 2 3 4 5 6 7 8 9 10 11 12 13 14 15 16 17 18 19 20 21 22 23 24 25 26 27 28 29 30 31 32 33 34 35 36 37 38 39 40 41 42 43 44 45 46 47 48 49 50

000
ASUS43 KBIS 310259
RWRND

NORTH DAKOTA REGIONAL WEATHER ROUNDUP
NATIONAL WEATHER SERVICE BISMARCK ND
1000 PM CDT SAT AUG 30 2014

NOTE: "FAIR" INDICATES FEW OR NO CLOUDS BELOW 12,000 FEET WITH NO
SIGNIFICANT WEATHER AND/OR OBSTRUCTIONS TO VISIBILITY.


NDZ001>003-009>011-017-310400-
NORTHWEST NORTH DAKOTA

CITY           SKY/WX    TMP DP  RH WIND       PRES   REMARKS
WILLISTON      MOCLDY    61  59  93 E3        29.71R
$$

NDZ018>021-031>035-040>046-310400-
SOUTHWEST NORTH DAKOTA

CITY           SKY/WX    TMP DP  RH WIND       PRES   REMARKS
BISMARCK       MOCLDY    65  57  75 SE8       29.72R
DICKINSON      LGT RAIN  65  59  81 S12       29.69R
GARRISON         N/A     66  58  75 SE8       29.69R
HETTINGER ARPT   N/A     59  57  93 SW15      29.73R THUNDER
$$

NDZ004>008-012>016-024-026-027-054-310400-
NORTHEAST NORTH DAKOTA

CITY           SKY/WX    TMP DP  RH WIND       PRES   REMARKS
GRAND FORKS    PTCLDY    63  59  87 SE7       29.78S
DEVILS LAKE    CLEAR     64  52  63 SE10      29.72F
$$

NDZ022-023-025-028>030-036>039-047>053-310400-
SOUTHEAST NORTH DAKOTA

CITY           SKY/WX    TMP DP  RH WIND       PRES   REMARKS
FARGO          PTCLDY    64  60  87 S7        29.80S
$$




USA.gov is the U.S. government's official web portal to all federal, state and local government web resources and services.